This is the latest recevied weather packets stored in our database for station/object OE3MHU-13. If no packets are shown the sender has not sent any weather packets the latest 10 day(s).
| Time | Temp. | Humidity | Pressure | Rain* | Wind** | Luminosity | Snow |
|---|---|---|---|---|---|---|---|
| 1787811889 | 22.22° C | 68% | 1020.2 hPa | 0 mm | - | - | - |
| 1787811590 | 21.67° C | 69% | 1020.2 hPa | 0 mm | - | - | - |
| 1787811289 | 21.67° C | 68% | 1020.1 hPa | 0 mm | - | - | - |
| 1787810986 | 21.11° C | 71% | 1020.1 hPa | 0 mm | - | - | - |
| 1787810685 | 20.56° C | 71% | 1019.9 hPa | 0 mm | - | - | - |
| 1787810385 | 20° C | 74% | 1019.9 hPa | 0 mm | - | - | - |
| 1787810086 | 19.44° C | 77% | 1019.8 hPa | 0 mm | - | - | - |
| 1787809785 | 18.89° C | 78% | 1019.7 hPa | 0 mm | - | - | - |
| 1787809606 | 18.33° C | 81% | 1019.7 hPa | 0 mm | - | - | - |
| 1787809595 | 18.33° C | 79% | 1019.7 hPa | 0 mm | - | - | - |
| 1787808884 | 17.78° C | 82% | 1019.8 hPa | 0 mm | - | - | - |
| 1787808582 | 17.22° C | 83% | 1019.8 hPa | 0 mm | - | - | - |
| 1787808283 | 16.67° C | 84% | 1019.8 hPa | 0 mm | - | - | - |
| 1787807982 | 16.67° C | 85% | 1019.8 hPa | 0 mm | - | - | - |
| 1787807679 | 16.11° C | 85% | 1019.8 hPa | 0 mm | - | - | - |
| 1787807379 | 16.11° C | 85% | 1019.8 hPa | 0 mm | - | - | - |
| 1787807077 | 16.11° C | 86% | 1019.7 hPa | 0 mm | - | - | - |
| 1787806777 | 15.56° C | 86% | 1019.7 hPa | 0 mm | - | - | - |
| 1787806474 | 15.56° C | 86% | 1019.6 hPa | 0 mm | - | - | - |
| 1787806174 | 15.56° C | 86% | 1019.5 hPa | 0 mm | - | - | - |
| 1787805873 | 15.56° C | 86% | 1019.5 hPa | 0 mm | - | - | - |
| 1787805573 | 15.56° C | 86% | 1019.6 hPa | 0 mm | - | - | - |
| 1787805274 | 15.56° C | 86% | 1019.6 hPa | 0 mm | - | - | - |
| 1787804972 | 15.56° C | 86% | 1019.6 hPa | 0 mm | - | - | - |
| 1787804673 | 15.56° C | 86% | 1019.5 hPa | 0 mm | - | - | - |
* Rain latest hour (hover to see other rain measurements)
** Current wind speed in m/s (hover to see current wind gust speed)